Eelde, Netherlands

9:18 AM CEST on June 23, 2017 (GMT +0200)
Eelde

Weather History for EHGG - March, 2014

Change the Weather History Date:

Tuesday, March 25, 2014

  Actual Average Record
Temperature  
Mean Temperature 38 °F -  
Max Temperature 50 °F 52 °F 62 °F (2003)
Min Temperature 26 °F 36 °F 25 °F (2013)
Degree Days  
Heating Degree Days 27    
Moisture  
Dew Point 33 °F    
Average Humidity 79    
Maximum Humidity 100    
Minimum Humidity 40    
Precipitation  
Precipitation 0.00 in 0.07 in - ()
Sea Level Pressure  
Sea Level Pressure 29.90 in    
Wind  
Wind Speed 3 mph ()    
Max Wind Speed 13 mph    
Max Gust Speed -    
Visibility 5.8 miles    
Events Fog    
Averages and records for this station are not official NWS values.
T = Trace of Precipitation, MM = Missing Value Source: Averaged Metar Reports

Daily Weather History Graph

Daily Weather History Graph

Search for Another Location

Airport or City:

Trip Planner

Search our weather history database for the weather conditions in past years. The results will help you decide how hot, cold, wet, or windy it might be!

Date:

Astronomy

Mar. 25, 2014 Rise Set
Actual Time 6:24 AM CET 6:55 PM CET
Civil Twilight 5:49 AM CET 7:30 PM CET
Nautical Twilight 5:08 AM CET 8:12 PM CET
Astronomical Twilight 4:24 AM CET 8:56 PM CET
Moon 3:16 AM CET (3/25) 12:27 PM CET (3/25)
Length of Visible Light 13h 40m
Length of Day
12h 31m
Waning Crescent, 34% of the Moon is Illuminated
Mar 25
Waning Crescent
Mar 30
New
Apr 7
First Quarter
Apr 15
Full
Apr 22
Last Quarter

Hourly Weather History & Observations

Time (CET) Temp. Windchill Dew Point Humidity Pressure Visibility Wind Dir Wind Speed Gust Speed Precip Events Conditions
12:00 AM 31 °F - 29 °F 92% 29.94 in 1 mi 2.2 mph - - Fog Fog
12:25 AM 30.2 °F 26.7 °F 28.4 °F 93% 29.92 in 6.2 mi SSW 3.5 mph - N/A   Unknown
12:55 AM 30.2 °F - 30.2 °F 100% 29.92 in 4.3 mi SW 2.3 mph - N/A   Unknown
1:00 AM 31 °F - 30 °F 96% 29.93 in 1 mi SSW 2.2 mph - - Fog Fog
1:25 AM 30.2 °F - 30.2 °F 100% 29.92 in 1.2 mi SW 2.3 mph - N/A   Mist
1:55 AM 30.2 °F - 30.2 °F 100% 29.92 in 0.8 mi SW 1.2 mph - N/A   Mist
2:00 AM 30 °F - 30 °F 99% 29.92 in 0 mi SSW 2.2 mph - - Fog Fog
2:25 AM 30.2 °F - 28.4 °F 93% 29.89 in - SSE 2.3 mph - N/A   Partly Cloudy
2:55 AM 30.2 °F - 28.4 °F 93% 29.89 in 6.2 mi South 1.2 mph - N/A   Unknown
3:00 AM 29 °F - 29 °F 99% 29.91 in 1 mi SSW 2.2 mph - - Fog Fog
3:25 AM 28.4 °F - 28.4 °F 100% 29.89 in - South 1.2 mph - N/A   Mist
3:55 AM 28.4 °F - 28.4 °F 100% 29.89 in 0.4 mi Variable 1.2 mph - N/A Fog Light Freezing Fog
4:00 AM 29 °F - 28 °F 96% 29.90 in 0 mi South 2.2 mph - - Fog Fog
4:25 AM 26.6 °F - 26.6 °F 100% 29.89 in 0.6 mi South 2.3 mph - N/A   Mist
4:55 AM 28.4 °F - 28.4 °F 100% 29.89 in 0.5 mi SSW 2.3 mph - N/A Fog Light Freezing Fog
5:00 AM 28 °F - 28 °F 98% 29.90 in 0 mi South 2.2 mph - - Fog Fog
5:25 AM 28.4 °F - 26.6 °F 93% 29.89 in 0.4 mi Calm Calm - N/A Fog Light Freezing Fog
5:55 AM 26.6 °F - 26.6 °F 100% 29.89 in - East 1.2 mph - N/A   Mist
6:00 AM 27 °F - 26 °F 97% 29.90 in 0 mi Calm Calm - - Fog Fog
6:25 AM 26.6 °F - 26.6 °F 100% 29.89 in 0.2 mi Calm Calm - N/A Fog Light Freezing Fog
6:55 AM 28.4 °F - 26.6 °F 93% 29.89 in 0.3 mi Variable 1.2 mph - N/A Fog Light Freezing Fog
7:00 AM 28 °F - 27 °F 96% 29.90 in 0 mi ESE 2.2 mph - - Fog Fog
7:25 AM 30.2 °F - 28.4 °F 93% 29.89 in 6.2 mi ESE 1.2 mph - N/A   Unknown
7:55 AM 32.0 °F - 32.0 °F 100% 29.89 in 3.7 mi Calm Calm - N/A   Unknown
8:00 AM 34 °F - 32 °F 91% 29.90 in 5 mi ENE 2.2 mph - - Fog Fog
8:25 AM 37.4 °F - 35.6 °F 93% 29.89 in 6.2 mi Variable 1.2 mph - N/A   Unknown
8:55 AM 41.0 °F - 37.4 °F 87% 29.89 in 6.2 mi Calm Calm - N/A   Unknown
9:00 AM 42 °F - 38 °F 79% 29.89 in 10 mi Calm Calm - -  
9:25 AM 44.6 °F - 37.4 °F 76% 29.89 in 6.2 mi Variable 1.2 mph - N/A   Unknown
9:55 AM 46.4 °F - 37.4 °F 71% 29.89 in 6.2 mi Variable 2.3 mph - N/A   Unknown
10:00 AM 45 °F - 35 °F 59% 29.90 in 16 mi 2.2 mph - -  
10:25 AM 46.4 °F - 33.8 °F 62% 29.89 in 6.2 mi Variable 1.2 mph - N/A   Unknown
10:55 AM 46.4 °F - 33.8 °F 62% 29.89 in 6.2 mi South 2.3 mph - N/A   Unknown
11:00 AM 48 °F - 34 °F 46% 29.89 in 18 mi 2.2 mph - -  
11:25 AM 46.4 °F 44.3 °F 32.0 °F 57% 29.89 in 6.2 mi NE 4.6 mph - N/A   Mostly Cloudy
11:55 AM 48.2 °F - 35.6 °F 62% 29.89 in 6.2 mi Variable 4.6 mph - N/A   Scattered Clouds
12:00 PM 48 °F - 34 °F 47% 29.89 in 19 mi NE 6.7 mph - -   Overcast
12:25 PM 48.2 °F - 33.8 °F 58% 29.86 in 6.2 mi ENE 6.9 mph - N/A   Unknown
12:55 PM 48.2 °F - 30.2 °F 50% 29.86 in 6.2 mi ENE 4.6 mph - N/A   Unknown
1:00 PM 49 °F - 32 °F 40% 29.88 in 19 mi ENE 4.5 mph - -   Partly Cloudy
1:25 PM 48.2 °F - 30.2 °F 50% 29.86 in 6.2 mi ENE 4.6 mph - N/A   Scattered Clouds
1:55 PM 50.0 °F - 33.8 °F 54% 29.86 in 6.2 mi NNE 6.9 mph - N/A   Scattered Clouds
2:00 PM 50 °F - 34 °F 41% 29.88 in 17 mi NE 4.5 mph - -   Scattered Clouds
2:25 PM 48.2 °F - 33.8 °F 58% 29.86 in 6.2 mi North 5.8 mph - N/A   Scattered Clouds
2:55 PM 50.0 °F - 32.0 °F 50% 29.86 in 6.2 mi NE 6.9 mph - N/A   Partly Cloudy
3:00 PM 48 °F - 34 °F 47% 29.88 in 25 mi NE 11.2 mph - -   Overcast
3:25 PM 46.4 °F 41.5 °F 35.6 °F 66% 29.86 in 6.2 mi North 10.4 mph - N/A   Partly Cloudy
3:55 PM 46.4 °F 41.5 °F 35.6 °F 66% 29.86 in 6.2 mi NE 10.4 mph - N/A   Overcast
4:00 PM 48 °F - 36 °F 52% 29.88 in 22 mi NNE 11.2 mph - -   Overcast
4:25 PM 46.4 °F 40.7 °F 33.8 °F 62% 29.86 in 6.2 mi NNE 12.7 mph - N/A   Partly Cloudy
4:55 PM 46.4 °F 41.1 °F 35.6 °F 66% 29.89 in 6.2 mi NNE 11.5 mph - N/A   Partly Cloudy
5:00 PM 46 °F - 33 °F 50% 29.89 in 28 mi NNE 8.9 mph - -   Scattered Clouds
5:25 PM 46.4 °F 40.7 °F 35.6 °F 66% 29.89 in 6.2 mi NNE 12.7 mph - N/A   Partly Cloudy
5:55 PM 44.6 °F 39.2 °F 35.6 °F 71% 29.89 in 6.2 mi NNE 10.4 mph - N/A   Partly Cloudy
6:00 PM 44 °F - 36 °F 65% 29.91 in 25 mi NE 6.7 mph - -   Scattered Clouds
6:25 PM 42.8 °F 38.6 °F 35.6 °F 76% 29.89 in 6.2 mi NE 6.9 mph - N/A   Unknown
6:55 PM 42.8 °F 38.0 °F 33.8 °F 70% 29.89 in 6.2 mi NE 8.1 mph - N/A   Unknown
7:00 PM 42 °F - 35 °F 66% 29.92 in 28 mi NNE 8.9 mph - -   Partly Cloudy
7:25 PM 41.0 °F 36.4 °F 35.6 °F 81% 29.92 in 6.2 mi North 6.9 mph - N/A   Unknown
7:55 PM 41.0 °F 36.4 °F 35.6 °F 81% 29.92 in 6.2 mi NNE 6.9 mph - N/A   Unknown
8:00 PM 40 °F - 35 °F 76% 29.93 in 28 mi NNE 6.7 mph - -  
8:25 PM 41.0 °F 36.4 °F 35.6 °F 81% 29.92 in 6.2 mi NNE 6.9 mph - N/A   Unknown
8:55 PM 39.2 °F 35.9 °F 35.6 °F 87% 29.92 in 6.2 mi North 4.6 mph - N/A   Unknown
9:00 PM 38 °F - 35 °F 82% 29.94 in 12 mi North 4.5 mph - -  
9:25 PM 37.4 °F 33.8 °F 35.6 °F 93% 29.92 in 6.2 mi North 4.6 mph - N/A   Unknown
9:55 PM 37.4 °F 33.8 °F 35.6 °F 93% 29.92 in 6.2 mi North 4.6 mph - N/A   Unknown
10:00 PM 37 °F - 35 °F 89% 29.94 in 9 mi North 4.5 mph - -  
10:25 PM 37.4 °F 33.8 °F 35.6 °F 93% 29.92 in 6.2 mi North 4.6 mph - N/A   Unknown
10:55 PM 37.4 °F 32.8 °F 35.6 °F 93% 29.95 in 6.2 mi North 5.8 mph - N/A   Unknown
11:00 PM 37 °F - 35 °F 89% 29.95 in 9 mi North 4.5 mph - -  
11:25 PM 37.4 °F 32.8 °F 33.8 °F 87% 29.92 in 6.2 mi North 5.8 mph - N/A   Unknown
11:55 PM 37.4 °F 32.8 °F 35.6 °F 93% 29.95 in 6.2 mi North 5.8 mph - N/A   Unknown